contact:dominique.lefevre@mio.osupytheas.fr, maurice.libes@osupytheas.fr, didier.mallarino@osupytheas.fr
Project:EMSO http://www.emso-fr.org/EMSO-France
Depth: 2436.0 m
Title:EMSO Ligure Ouest : Data MII capteur AQUADOPP
Date,Latitude,Longitude,X_East,Y_North,Z_Up,Amplitude_X,Amplitude_Y,Amplitude_Z,Batterie,SoundSpeed,Heading,Pitch,Roll,Pressure,TIS,Speed,Direction
, degrees North, degrees East, m.s-1, m.s-1,m.s-1, 1, 1, 1, Volt, m.s-1, degree, degree, degree, dbar, degree_C, m.s-1, degree
2021-09-18T00:04:03,42.805,6.029,-0.066,-0.013,-0.03,102.0,101.0,100.0,13.4,1505.2,327.1,-0.8,1.8,2470.589,13.28,0.067,258.9
2021-09-18T00:07:03,42.805,6.029,-0.071,-0.014,-0.013,102.0,100.0,101.0,13.4,1505.2,326.7,-0.8,1.8,2470.592,13.28,0.072,258.8
2021-09-18T00:10:03,42.805,6.029,-0.082,-0.009,-0.028,100.0,100.0,100.0,13.4,1505.2,331.3,-0.7,1.8,2470.579,13.28,0.082,263.7
2021-09-18T00:13:03,42.805,6.029,-0.088,-0.008,-0.059,101.0,101.0,99.0,13.4,1505.2,329.3,-0.7,1.8,2470.581,13.28,0.088,264.8
2021-09-18T00:16:03,42.805,6.029,-0.063,-0.021,-0.018,101.0,99.0,100.0,13.3,1505.2,328.5,-0.8,1.8,2470.577,13.28,0.066,251.6
2021-09-18T00:19:03,42.805,6.029,-0.071,-0.008,-0.029,101.0,100.0,99.0,13.4,1505.2,328.0,-0.8,1.8,2470.55,13.28,0.071,263.6
2021-09-18T00:22:03,42.805,6.029,-0.053,-0.014,-0.028,101.0,99.0,100.0,13.4,1505.2,329.9,-0.8,1.8,2470.563,13.28,0.054,255.2
2021-09-18T00:25:03,42.805,6.029,-0.071,0.0,0.01,100.0,102.0,99.0,13.4,1505.2,327.9,-0.8,1.8,2470.543,13.28,0.07,270.0
2021-09-18T00:28:03,42.805,6.029,-0.069,-0.036,-0.035,101.0,101.0,100.0,13.4,1505.2,327.2,-0.8,1.8,2470.542,13.28,0.077,242.4
2021-09-18T00:31:03,42.805,6.029,-0.067,-0.03,-0.011,101.0,101.0,100.0,13.4,1505.2,328.4,-0.7,1.8,2470.588,13.28,0.073,245.9
2021-09-18T00:34:03,42.805,6.029,-0.056,-0.019,-0.05,100.0,100.0,100.0,13.4,1505.2,330.6,-0.7,1.8,2470.536,13.28,0.059,251.3
2021-09-18T00:37:03,42.805,6.029,-0.068,-0.038,-0.061,100.0,100.0,99.0,13.3,1505.2,325.5,-0.8,1.8,2470.559,13.28,0.077,240.8
2021-09-18T00:40:03,42.805,6.029,-0.081,-0.015,-0.054,101.0,99.0,100.0,13.3,1505.2,328.4,-0.7,1.8,2470.566,13.28,0.082,259.5
2021-09-18T00:43:03,42.805,6.029,-0.058,-0.022,0.0,101.0,100.0,100.0,13.3,1505.2,328.5,-0.8,1.8,2470.568,13.28,0.062,249.2
2021-09-18T00:46:03,42.805,6.029,-0.04,-0.046,-0.046,102.0,101.0,99.0,13.4,1505.2,325.3,-0.7,1.9,2470.606,13.28,0.06,221.0
2021-09-18T00:49:03,42.805,6.029,-0.066,-0.011,-0.05,100.0,101.0,99.0,13.4,1505.2,326.4,-0.8,1.8,2470.548,13.28,0.066,260.5
2021-09-18T00:52:03,42.805,6.029,-0.075,-0.019,-0.015,101.0,100.0,100.0,13.3,1505.2,330.9,-0.8,1.8,2470.528,13.28,0.077,255.8
2021-09-18T00:55:03,42.805,6.029,-0.062,-0.021,-0.052,100.0,101.0,99.0,13.4,1505.2,329.6,-0.8,1.8,2470.554,13.28,0.065,251.3
2021-09-18T00:58:03,42.805,6.029,-0.052,-0.006,0.003,100.0,101.0,101.0,13.4,1505.2,325.0,-0.8,1.8,2470.554,13.28,0.052,263.4
2021-09-18T01:04:03,42.805,6.029,-0.034,-0.048,-0.002,102.0,103.0,101.0,13.4,1505.2,330.1,-0.8,1.8,2470.614,13.28,0.058,215.3
2021-09-18T01:07:03,42.805,6.029,-0.051,-0.002,0.015,103.0,101.0,101.0,13.3,1505.2,329.0,-0.8,1.8,2470.596,13.28,0.051,267.8
2021-09-18T01:10:03,42.805,6.029,-0.064,-0.011,-0.004,100.0,101.0,100.0,13.4,1505.2,328.5,-0.8,1.8,2470.603,13.28,0.064,260.2
2021-09-18T01:13:03,42.805,6.029,-0.047,-0.011,0.0,101.0,101.0,100.0,13.3,1505.2,331.5,-0.8,1.8,2470.609,13.28,0.048,256.8
2021-09-18T01:16:03,42.805,6.029,-0.058,-0.022,-0.016,100.0,101.0,101.0,13.4,1505.2,326.3,-0.8,1.8,2470.576,13.28,0.062,249.2
2021-09-18T01:19:03,42.805,6.029,-0.056,-0.02,-0.03,100.0,102.0,98.0,13.4,1505.2,328.6,-0.8,1.8,2470.563,13.28,0.059,250.4
2021-09-18T01:22:03,42.805,6.029,-0.047,-0.013,-0.01,100.0,101.0,101.0,13.4,1505.2,326.3,-0.7,1.8,2470.596,13.28,0.048,254.5
2021-09-18T01:25:03,42.805,6.029,-0.076,-0.024,-0.057,101.0,100.0,100.0,13.4,1505.2,328.5,-0.8,1.8,2470.542,13.28,0.079,252.5
2021-09-18T01:28:03,42.805,6.029,-0.068,-0.033,-0.031,100.0,102.0,99.0,13.4,1505.2,326.9,-0.7,1.8,2470.611,13.28,0.075,244.1
2021-09-18T01:31:03,42.805,6.029,-0.053,-0.021,0.008,101.0,101.0,99.0,13.4,1505.2,328.2,-0.7,1.8,2470.631,13.28,0.057,248.4
2021-09-18T01:34:03,42.805,6.029,-0.064,-0.045,-0.031,101.0,102.0,100.0,13.4,1505.2,329.2,-0.7,1.8,2470.573,13.28,0.078,234.9
2021-09-18T01:37:03,42.805,6.029,-0.056,-0.02,-0.034,101.0,100.0,100.0,13.4,1505.2,327.1,-0.7,1.9,2470.553,13.28,0.059,250.4
2021-09-18T01:40:03,42.805,6.029,-0.055,-0.023,-0.044,100.0,101.0,100.0,13.4,1505.2,326.9,-0.7,1.8,2470.589,13.28,0.059,247.3
2021-09-18T01:43:03,42.805,6.029,-0.065,-0.03,-0.026,100.0,99.0,101.0,13.4,1505.2,329.0,-0.8,1.8,2470.576,13.28,0.071,245.2
2021-09-18T01:46:03,42.805,6.029,-0.063,-0.027,-0.026,100.0,99.0,100.0,13.3,1505.2,326.4,-0.7,1.8,2470.586,13.28,0.068,246.8
2021-09-18T01:49:03,42.805,6.029,-0.078,0.001,0.001,102.0,101.0,99.0,13.3,1505.2,328.5,-0.8,1.8,2470.578,13.28,0.078,270.7
2021-09-18T01:52:03,42.805,6.029,-0.027,-0.032,-0.019,101.0,100.0,100.0,13.4,1505.2,325.0,-0.8,1.8,2470.608,13.28,0.041,220.2
2021-09-18T01:55:03,42.805,6.029,-0.075,-0.031,-0.028,100.0,101.0,99.0,13.4,1505.2,329.1,-0.7,1.8,2470.593,13.28,0.081,247.5
2021-09-18T01:58:03,42.805,6.029,-0.06,-0.018,0.0,101.0,99.0,99.0,13.3,1505.2,328.0,-0.7,1.8,2470.58,13.28,0.062,253.3
2021-09-18T02:04:03,42.805,6.029,-0.045,-0.019,-0.02,101.0,101.0,100.0,13.4,1505.2,327.4,-0.8,1.8,2470.616,13.28,0.048,247.1
2021-09-18T02:07:03,42.805,6.029,-0.071,-0.024,-0.04,101.0,101.0,99.0,13.4,1505.2,328.3,-0.8,1.8,2470.622,13.28,0.074,251.3
2021-09-18T02:10:03,42.805,6.029,-0.069,-0.017,-0.029,101.0,100.0,100.0,13.4,1505.2,326.7,-0.7,1.8,2470.608,13.28,0.071,256.2
2021-09-18T02:13:03,42.805,6.029,-0.06,-0.046,-0.033,102.0,102.0,99.0,13.3,1505.2,327.5,-0.7,1.8,2470.667,13.28,0.075,232.5
2021-09-18T02:16:03,42.805,6.029,-0.059,-0.039,-0.019,101.0,100.0,101.0,13.3,1505.2,329.5,-0.7,1.8,2470.608,13.28,0.07,236.5
2021-09-18T02:19:03,42.805,6.029,-0.06,-0.026,-0.04,100.0,100.0,99.0,13.3,1505.2,326.8,-0.7,1.9,2470.621,13.28,0.065,246.6
2021-09-18T02:22:03,42.805,6.029,-0.066,-0.032,-0.008,100.0,100.0,99.0,13.4,1505.2,329.2,-0.7,1.8,2470.629,13.28,0.073,244.1
2021-09-18T02:25:03,42.805,6.029,-0.03,-0.029,0.002,101.0,100.0,100.0,13.4,1505.2,325.8,-0.8,1.8,2470.606,13.28,0.041,226.0
2021-09-18T02:28:03,42.805,6.029,-0.077,-0.021,-0.026,99.0,100.0,101.0,13.3,1505.2,330.0,-0.7,1.8,2470.638,13.28,0.079,254.7
2021-09-18T02:31:03,42.805,6.029,-0.076,-0.046,-0.033,101.0,101.0,99.0,13.3,1505.2,329.3,-0.8,1.8,2470.636,13.28,0.088,238.8
2021-09-18T02:34:03,42.805,6.029,-0.063,-0.023,-0.029,100.0,101.0,100.0,13.3,1505.2,331.1,-0.7,1.8,2470.627,13.28,0.067,249.9
2021-09-18T02:37:03,42.805,6.029,-0.055,-0.021,-0.029,100.0,100.0,100.0,13.3,1505.2,327.2,-0.7,1.8,2470.6,13.28,0.058,249.1
2021-09-18T02:40:03,42.805,6.029,-0.062,-0.024,0.006,101.0,100.0,100.0,13.4,1505.2,329.5,-0.7,1.8,2470.584,13.28,0.066,248.8
2021-09-18T02:43:03,42.805,6.029,-0.069,-0.003,-0.008,100.0,99.0,101.0,13.3,1505.2,328.3,-0.7,1.8,2470.615,13.28,0.069,267.5
2021-09-18T02:46:03,42.805,6.029,-0.038,-0.029,-0.041,100.0,101.0,99.0,13.4,1505.2,327.3,-0.7,1.8,2470.614,13.28,0.047,232.7
2021-09-18T02:49:03,42.805,6.029,-0.054,-0.039,-0.047,102.0,100.0,99.0,13.4,1505.2,326.1,-0.8,1.8,2470.599,13.28,0.066,234.2
2021-09-18T02:52:03,42.805,6.029,-0.07,-0.022,-0.055,99.0,101.0,100.0,13.4,1505.2,325.7,-0.8,1.8,2470.63,13.28,0.073,252.6
2021-09-18T02:55:03,42.805,6.029,-0.052,-0.026,-0.052,100.0,99.0,100.0,13.3,1505.2,329.4,-0.7,1.8,2470.636,13.28,0.058,243.4
2021-09-18T02:58:03,42.805,6.029,-0.05,-0.017,-0.004,101.0,100.0,101.0,13.3,1505.2,330.7,-0.7,1.9,2470.595,13.28,0.052,251.2
2021-09-18T03:04:03,42.805,6.029,-0.066,-0.021,0.005,101.0,100.0,100.0,13.4,1505.2,331.0,-0.7,1.8,2470.671,13.28,0.069,252.4
2021-09-18T03:07:03,42.805,6.029,-0.045,-0.018,-0.035,100.0,102.0,100.0,13.4,1505.2,327.0,-0.7,1.8,2470.651,13.28,0.048,248.2
2021-09-18T03:10:03,42.805,6.029,-0.049,-0.023,-0.037,101.0,100.0,100.0,13.3,1505.2,327.1,-0.7,1.9,2470.633,13.28,0.054,244.9
2021-09-18T03:13:03,42.805,6.029,-0.023,-0.023,-0.018,102.0,100.0,101.0,13.4,1505.2,329.9,-0.7,1.8,2470.614,13.28,0.032,225.0
2021-09-18T03:16:03,42.805,6.029,-0.062,-0.007,-0.013,100.0,101.0,100.0,13.4,1505.2,326.9,-0.8,1.8,2470.634,13.28,0.062,263.6
2021-09-18T03:19:03,42.805,6.029,-0.047,-0.035,-0.032,100.0,100.0,99.0,13.3,1505.2,325.8,-0.8,1.8,2470.629,13.28,0.058,233.3
2021-09-18T03:22:03,42.805,6.029,-0.049,-0.023,-0.015,100.0,101.0,101.0,13.4,1505.2,330.1,-0.8,1.8,2470.637,13.28,0.054,244.9
2021-09-18T03:25:03,42.805,6.029,-0.054,-0.032,-0.052,102.0,99.0,100.0,13.3,1505.2,328.9,-0.8,1.8,2470.64,13.28,0.062,239.3
2021-09-18T03:28:03,42.805,6.029,-0.052,-0.012,0.007,102.0,100.0,99.0,13.4,1505.2,329.2,-0.8,1.8,2470.644,13.28,0.053,257.0
2021-09-18T03:31:03,42.805,6.029,-0.048,-0.022,-0.016,101.0,100.0,101.0,13.4,1505.2,327.4,-0.8,1.8,2470.632,13.28,0.052,245.4
2021-09-18T03:34:03,42.805,6.029,-0.053,-0.022,-0.051,100.0,101.0,100.0,13.4,1505.2,325.7,-0.8,1.8,2470.621,13.28,0.057,247.5
2021-09-18T03:37:03,42.805,6.029,-0.046,-0.041,-0.032,102.0,102.0,100.0,13.4,1505.2,327.4,-0.8,1.8,2470.624,13.28,0.061,228.3
2021-09-18T03:40:03,42.805,6.029,-0.051,-0.01,-0.023,99.0,99.0,101.0,13.4,1505.2,330.3,-0.7,1.8,2470.637,13.28,0.051,258.9
2021-09-18T03:43:03,42.805,6.029,-0.04,-0.026,-0.019,102.0,99.0,100.0,13.4,1505.2,329.7,-0.7,1.8,2470.616,13.28,0.047,237.0
2021-09-18T03:46:03,42.805,6.029,-0.053,-0.024,-0.035,101.0,100.0,99.0,13.4,1505.2,328.8,-0.8,1.8,2470.651,13.28,0.058,245.6
2021-09-18T03:49:03,42.805,6.029,-0.059,-0.003,-0.027,100.0,100.0,100.0,13.4,1505.2,327.8,-0.7,1.8,2470.596,13.28,0.059,267.1
2021-09-18T03:52:03,42.805,6.029,-0.059,-0.037,-0.027,101.0,100.0,100.0,13.3,1505.2,330.0,-0.8,1.8,2470.616,13.28,0.069,237.9
2021-09-18T03:55:03,42.805,6.029,-0.06,-0.023,-0.016,101.0,101.0,100.0,13.3,1505.2,330.7,-0.8,1.9,2470.659,13.28,0.064,249.0
2021-09-18T03:58:03,42.805,6.029,-0.052,-0.017,-0.025,101.0,100.0,101.0,13.4,1505.2,330.8,-0.7,1.9,2470.665,13.28,0.054,251.9
2021-09-18T04:04:03,42.805,6.029,-0.056,-0.019,-0.039,101.0,100.0,100.0,13.4,1505.2,327.7,-0.8,1.9,2470.697,13.28,0.059,251.3
2021-09-18T04:07:03,42.805,6.029,-0.05,-0.01,-0.007,101.0,100.0,100.0,13.4,1505.2,328.7,-0.7,1.8,2470.647,13.28,0.05,258.7
2021-09-18T04:10:03,42.805,6.029,-0.05,-0.018,-0.034,102.0,99.0,100.0,13.4,1505.2,328.6,-0.7,1.8,2470.667,13.28,0.053,250.2
2021-09-18T04:13:03,42.805,6.029,-0.044,-0.034,-0.052,101.0,101.0,100.0,13.4,1505.2,325.6,-0.8,1.8,2470.655,13.28,0.055,232.3
2021-09-18T04:16:03,42.805,6.029,-0.06,-0.028,-0.005,101.0,100.0,100.0,13.3,1505.2,331.3,-0.7,1.8,2470.624,13.28,0.066,245.0
2021-09-18T04:19:03,42.805,6.029,-0.042,-0.021,-0.033,101.0,100.0,99.0,13.3,1505.2,327.1,-0.7,1.8,2470.697,13.28,0.046,243.4
2021-09-18T04:22:03,42.805,6.029,-0.039,-0.023,-0.031,101.0,100.0,101.0,13.4,1505.2,329.5,-0.8,1.8,2470.627,13.28,0.045,239.5
2021-09-18T04:25:03,42.805,6.029,-0.062,0.0,-0.014,100.0,101.0,100.0,13.4,1505.2,325.0,-0.7,1.8,2470.668,13.28,0.061,270.0
2021-09-18T04:28:03,42.805,6.029,-0.058,-0.027,-0.038,100.0,101.0,101.0,13.4,1505.2,329.1,-0.7,1.8,2470.668,13.28,0.063,245.0
2021-09-18T04:31:03,42.805,6.029,-0.04,-0.038,-0.049,101.0,101.0,100.0,13.4,1505.2,325.5,-0.8,1.8,2470.624,13.28,0.055,226.5
2021-09-18T04:34:03,42.805,6.029,-0.043,-0.023,-0.049,103.0,101.0,99.0,13.3,1505.2,328.3,-0.8,1.8,2470.623,13.28,0.048,241.9
2021-09-18T04:37:03,42.805,6.029,-0.05,-0.039,-0.021,100.0,100.0,99.0,13.4,1505.2,327.2,-0.7,1.8,2470.642,13.28,0.063,232.0
2021-09-18T04:40:03,42.805,6.029,-0.068,-0.019,-0.024,100.0,100.0,101.0,13.3,1505.2,330.4,-0.8,1.8,2470.674,13.28,0.07,254.4
2021-09-18T04:43:03,42.805,6.029,-0.062,-0.015,-0.015,102.0,100.0,100.0,13.3,1505.2,331.4,-0.8,1.8,2470.632,13.28,0.063,256.4
2021-09-18T04:46:03,42.805,6.029,-0.069,-0.049,-0.039,101.0,101.0,99.0,13.4,1505.2,327.5,-0.8,1.8,2470.692,13.28,0.084,234.6
2021-09-18T04:49:03,42.805,6.029,-0.06,-0.034,-0.033,101.0,99.0,101.0,13.3,1505.2,329.5,-0.7,1.8,2470.666,13.28,0.068,240.5
2021-09-18T04:52:03,42.805,6.029,-0.074,-0.029,-0.038,100.0,101.0,100.0,13.4,1505.2,325.8,-0.8,1.9,2470.688,13.28,0.079,248.6
2021-09-18T04:55:03,42.805,6.029,-0.066,-0.024,0.005,101.0,100.0,99.0,13.4,1505.2,325.7,-0.8,1.8,2470.651,13.28,0.07,250.0
2021-09-18T04:58:03,42.805,6.029,-0.068,-0.023,-0.006,101.0,101.0,100.0,13.4,1505.2,325.0,-0.8,1.8,2470.665,13.28,0.071,251.3
2021-09-18T05:04:03,42.805,6.029,-0.061,-0.012,-0.036,100.0,101.0,100.0,13.4,1505.2,328.5,-0.8,1.8,2470.703,13.28,0.062,258.9
2021-09-18T05:07:03,42.805,6.029,-0.081,-0.021,-0.016,102.0,99.0,100.0,13.4,1505.2,327.3,-0.7,1.8,2470.733,13.28,0.083,255.5
2021-09-18T05:10:03,42.805,6.029,-0.047,-0.003,0.004,102.0,99.0,100.0,13.4,1505.2,327.1,-0.7,1.8,2470.655,13.28,0.047,266.4
2021-09-18T05:13:03,42.805,6.029,-0.054,-0.017,-0.019,99.0,103.0,100.0,13.3,1505.2,329.5,-0.8,1.8,2470.736,13.28,0.056,252.5
2021-09-18T05:16:03,42.805,6.029,-0.062,-0.009,-0.001,101.0,101.0,100.0,13.4,1505.2,326.4,-0.8,1.9,2470.67,13.28,0.062,261.7
2021-09-18T05:19:03,42.805,6.029,-0.038,-0.031,-0.052,102.0,99.0,100.0,13.3,1505.2,327.5,-0.8,1.8,2470.672,13.28,0.049,230.8
2021-09-18T05:22:03,42.805,6.029,-0.054,-0.024,-0.034,100.0,103.0,101.0,13.4,1505.2,328.9,-0.7,1.7,2470.68,13.28,0.059,246.0
2021-09-18T05:25:03,42.805,6.029,-0.052,0.001,0.014,103.0,102.0,99.0,13.4,1505.2,329.1,-0.7,1.8,2470.661,13.28,0.052,271.1
2021-09-18T05:28:03,42.805,6.029,-0.075,-0.017,-0.025,100.0,100.0,101.0,13.4,1505.2,326.8,-0.7,1.8,2470.654,13.28,0.076,257.2
2021-09-18T05:31:03,42.805,6.029,-0.061,-0.015,-0.019,101.0,101.0,100.0,13.4,1505.2,326.4,-0.7,1.8,2470.669,13.28,0.062,256.2
2021-09-18T05:34:03,42.805,6.029,-0.067,-0.016,-0.037,100.0,101.0,101.0,13.4,1505.2,328.4,-0.8,1.8,2470.659,13.28,0.068,256.6
2021-09-18T05:37:03,42.805,6.029,-0.069,-0.011,-0.01,100.0,101.0,100.0,13.4,1505.2,327.8,-0.8,1.8,2470.677,13.28,0.069,260.9
2021-09-18T05:40:03,42.805,6.029,-0.052,-0.003,0.007,100.0,102.0,101.0,13.4,1505.2,329.6,-0.7,1.8,2470.682,13.28,0.052,266.7
2021-09-18T05:43:03,42.805,6.029,-0.067,-0.013,-0.054,101.0,100.0,100.0,13.3,1505.2,325.9,-0.8,1.9,2470.667,13.28,0.068,259.0
2021-09-18T05:46:03,42.805,6.029,-0.018,-0.036,-0.018,101.0,100.0,102.0,13.4,1505.2,329.0,-0.8,1.8,2470.657,13.28,0.04,206.6
2021-09-18T05:49:03,42.805,6.029,-0.022,-0.026,-0.039,101.0,100.0,100.0,13.4,1505.2,326.9,-0.8,1.8,2470.665,13.28,0.034,220.2
2021-09-18T05:52:03,42.805,6.029,-0.092,-0.002,-0.037,101.0,101.0,100.0,13.4,1505.2,329.1,-0.7,1.8,2470.69,13.28,0.092,268.8
2021-09-18T05:55:03,42.805,6.029,-0.052,-0.041,-0.07,103.0,98.0,99.0,13.4,1505.2,328.9,-0.7,1.8,2470.662,13.28,0.066,231.7
2021-09-18T05:58:03,42.805,6.029,-0.066,-0.005,-0.013,101.0,100.0,101.0,13.3,1505.2,329.8,-0.8,1.8,2470.657,13.28,0.066,265.7
2021-09-18T06:04:03,42.805,6.029,-0.057,-0.024,-0.037,100.0,101.0,101.0,13.4,1505.2,330.8,-0.8,1.8,2470.695,13.28,0.061,247.2
2021-09-18T06:07:03,42.805,6.029,-0.036,-0.032,-0.067,99.0,101.0,101.0,13.4,1505.2,328.9,-0.8,1.8,2470.641,13.28,0.048,228.4
2021-09-18T06:10:03,42.805,6.029,-0.063,-0.007,-0.027,100.0,101.0,101.0,13.4,1505.2,331.5,-0.7,1.9,2470.696,13.28,0.063,263.7
2021-09-18T06:13:03,42.805,6.029,-0.06,-0.048,-0.033,101.0,100.0,100.0,13.4,1505.2,326.7,-0.7,1.8,2470.674,13.28,0.076,231.3
2021-09-18T06:16:03,42.805,6.029,-0.065,-0.029,-0.035,100.0,101.0,99.0,13.4,1505.2,326.1,-0.8,1.8,2470.663,13.28,0.071,246.0
2021-09-18T06:19:03,42.805,6.029,-0.073,-0.017,-0.037,102.0,99.0,101.0,13.4,1505.2,328.3,-0.7,1.8,2470.66,13.28,0.074,256.9
2021-09-18T06:22:03,42.805,6.029,-0.074,-0.011,-0.008,101.0,100.0,100.0,13.4,1505.2,326.8,-0.8,1.8,2470.654,13.28,0.074,261.5
2021-09-18T06:25:03,42.805,6.029,-0.032,-0.025,-0.011,101.0,101.0,99.0,13.4,1505.2,326.4,-0.8,1.8,2470.69,13.28,0.04,232.0
2021-09-18T06:28:03,42.805,6.029,-0.071,-0.021,-0.025,101.0,100.0,99.0,13.3,1505.2,326.9,-0.8,1.8,2470.683,13.28,0.074,253.5
2021-09-18T06:31:03,42.805,6.029,-0.066,-0.018,-0.027,100.0,102.0,99.0,13.4,1505.2,327.7,-0.7,1.8,2470.686,13.28,0.068,254.7
2021-09-18T06:34:03,42.805,6.029,-0.041,-0.019,0.002,101.0,100.0,100.0,13.4,1505.2,327.3,-0.7,1.8,2470.706,13.28,0.045,245.1
2021-09-18T06:37:03,42.805,6.029,-0.069,-0.025,-0.052,102.0,98.0,100.0,13.4,1505.2,326.6,-0.8,1.8,2470.645,13.28,0.073,250.1
2021-09-18T06:40:03,42.805,6.029,-0.081,-0.017,-0.039,101.0,101.0,99.0,13.4,1505.2,328.0,-0.8,1.8,2470.693,13.28,0.082,258.1
2021-09-18T06:43:03,42.805,6.029,-0.048,-0.023,-0.042,102.0,100.0,101.0,13.4,1505.2,329.1,-0.7,1.8,2470.652,13.28,0.053,244.4
2021-09-18T06:46:03,42.805,6.029,-0.053,-0.041,-0.024,102.0,101.0,100.0,13.3,1505.2,329.8,-0.8,1.8,2470.693,13.28,0.067,232.3
2021-09-18T06:49:03,42.805,6.029,-0.078,-0.037,-0.021,102.0,101.0,100.0,13.4,1505.2,328.8,-0.8,1.8,2470.653,13.28,0.086,244.6
2021-09-18T06:52:03,42.805,6.029,-0.056,-0.027,-0.013,102.0,102.0,100.0,13.4,1505.2,327.7,-0.8,1.8,2470.662,13.28,0.062,244.3
2021-09-18T06:55:03,42.805,6.029,-0.077,-0.008,-0.023,102.0,102.0,98.0,13.4,1505.2,326.8,-0.8,1.8,2470.674,13.28,0.077,264.1
2021-09-18T06:58:03,42.805,6.029,-0.071,-0.035,-0.026,101.0,101.0,100.0,13.4,1505.2,325.8,-0.8,1.8,2470.683,13.28,0.079,243.8
2021-09-18T07:04:03,42.805,6.029,-0.052,0.002,-0.018,101.0,101.0,100.0,13.4,1505.2,328.4,-0.8,1.8,2470.647,13.28,0.052,272.2
2021-09-18T07:07:03,42.805,6.029,-0.072,-0.013,0.003,101.0,101.0,101.0,13.3,1505.2,328.5,-0.8,1.8,2470.629,13.28,0.073,259.8
2021-09-18T07:10:03,42.805,6.029,-0.074,-0.02,-0.017,101.0,100.0,100.0,13.4,1505.2,327.5,-0.7,1.8,2470.724,13.28,0.076,254.9
2021-09-18T07:13:03,42.805,6.029,-0.065,-0.016,-0.051,101.0,100.0,100.0,13.3,1505.2,329.3,-0.7,1.9,2470.688,13.28,0.066,256.2
2021-09-18T07:16:03,42.805,6.029,-0.073,-0.038,-0.016,101.0,101.0,99.0,13.4,1505.2,327.1,-0.8,1.8,2470.672,13.28,0.082,242.5
2021-09-18T07:19:03,42.805,6.029,-0.075,-0.012,-0.032,101.0,101.0,101.0,13.4,1505.2,326.9,-0.8,1.8,2470.662,13.28,0.075,260.9
2021-09-18T07:22:03,42.805,6.029,-0.069,0.003,0.022,101.0,100.0,100.0,13.4,1505.2,329.1,-0.8,1.8,2470.65,13.28,0.069,272.5
2021-09-18T07:25:03,42.805,6.029,-0.063,-0.007,0.009,100.0,100.0,99.0,13.4,1505.2,325.0,-0.7,1.8,2470.644,13.28,0.063,263.7
2021-09-18T07:28:03,42.805,6.029,-0.06,-0.015,-0.01,101.0,101.0,100.0,13.4,1505.2,328.9,-0.7,1.8,2470.636,13.28,0.061,256.0
2021-09-18T07:31:03,42.805,6.029,-0.082,-0.006,-0.024,100.0,100.0,100.0,13.3,1505.2,327.0,-0.8,1.8,2470.661,13.28,0.082,265.8
2021-09-18T07:34:03,42.805,6.029,-0.098,0.0,-0.002,101.0,101.0,100.0,13.3,1505.2,326.3,-0.7,1.8,2470.639,13.28,0.098,270.0
2021-09-18T07:37:03,42.805,6.029,-0.074,-0.018,-0.008,101.0,100.0,100.0,13.4,1505.2,331.0,-0.8,1.8,2470.657,13.28,0.076,256.3
2021-09-18T07:40:03,42.805,6.029,-0.072,-0.016,-0.023,101.0,101.0,100.0,13.3,1505.2,326.3,-0.8,1.8,2470.615,13.28,0.073,257.5
2021-09-18T07:43:03,42.805,6.029,-0.058,-0.026,-0.026,102.0,100.0,100.0,13.3,1505.2,326.7,-0.8,1.8,2470.632,13.28,0.063,245.9
2021-09-18T07:46:03,42.805,6.029,-0.044,-0.001,0.01,101.0,101.0,100.0,13.3,1505.2,326.4,-0.8,1.8,2470.635,13.28,0.044,268.7
2021-09-18T07:49:03,42.805,6.029,-0.076,-0.032,-0.045,101.0,100.0,101.0,13.3,1505.2,329.1,-0.7,1.8,2470.646,13.28,0.082,247.2
2021-09-18T07:52:03,42.805,6.029,-0.063,-0.038,-0.006,102.0,100.0,100.0,13.4,1505.2,328.0,-0.7,1.8,2470.64,13.28,0.073,238.9
2021-09-18T07:55:03,42.805,6.029,-0.092,-0.017,-0.008,101.0,101.0,100.0,13.3,1505.2,329.4,-0.8,1.8,2470.638,13.28,0.093,259.5
2021-09-18T07:58:03,42.805,6.029,-0.08,0.012,-0.01,103.0,100.0,100.0,13.4,1505.2,329.5,-0.7,1.8,2470.625,13.28,0.08,278.5
2021-09-18T08:04:03,42.805,6.029,-0.062,-0.012,-0.022,101.0,101.0,100.0,13.3,1505.2,328.9,-0.8,1.8,2470.687,13.28,0.063,259.0
2021-09-18T08:07:03,42.805,6.029,-0.058,-0.009,0.004,103.0,101.0,100.0,13.3,1505.2,328.4,-0.7,1.8,2470.651,13.28,0.058,261.2
2021-09-18T08:10:03,42.805,6.029,-0.063,-0.027,-0.021,101.0,101.0,100.0,13.4,1505.2,329.3,-0.8,1.8,2470.656,13.28,0.068,246.8
2021-09-18T08:13:03,42.805,6.029,-0.071,-0.012,-0.041,101.0,101.0,99.0,13.4,1505.2,328.2,-0.7,1.8,2470.678,13.28,0.072,260.4
2021-09-18T08:16:03,42.805,6.029,-0.07,-0.03,-0.03,100.0,101.0,101.0,13.3,1505.2,328.3,-0.7,1.8,2470.657,13.28,0.076,246.8
2021-09-18T08:19:03,42.805,6.029,-0.075,0.0,-0.024,102.0,100.0,100.0,13.4,1505.2,331.4,-0.7,1.8,2470.667,13.28,0.074,270.0
2021-09-18T08:22:03,42.805,6.029,-0.074,-0.01,-0.037,101.0,101.0,100.0,13.4,1505.2,325.5,-0.7,1.8,2470.639,13.28,0.074,262.3
2021-09-18T08:25:03,42.805,6.029,-0.075,-0.009,-0.044,101.0,101.0,100.0,13.3,1505.2,329.8,-0.7,1.8,2470.605,13.28,0.075,263.2
2021-09-18T08:28:03,42.805,6.029,-0.07,-0.006,-0.044,102.0,101.0,100.0,13.4,1505.2,329.1,-0.7,1.8,2470.61,13.28,0.07,265.1
2021-09-18T08:31:03,42.805,6.029,-0.063,-0.012,-0.041,102.0,101.0,101.0,13.4,1505.2,327.3,-0.8,1.8,2470.599,13.28,0.064,259.2
2021-09-18T08:34:03,42.805,6.029,-0.056,-0.013,-0.023,101.0,101.0,101.0,13.3,1505.2,327.5,-0.8,1.8,2470.605,13.28,0.057,256.9
2021-09-18T08:37:03,42.805,6.029,-0.061,-0.03,-0.041,102.0,100.0,101.0,13.4,1505.2,328.0,-0.8,1.8,2470.601,13.28,0.067,243.8
2021-09-18T08:40:03,42.805,6.029,-0.047,-0.022,-0.035,102.0,101.0,101.0,13.4,1505.2,327.8,-0.7,1.8,2470.636,13.28,0.051,244.9
2021-09-18T08:43:03,42.805,6.029,-0.07,-0.008,-0.018,101.0,102.0,101.0,13.4,1505.2,327.4,-0.8,1.9,2470.603,13.28,0.07,263.5
2021-09-18T08:46:03,42.805,6.029,-0.072,-0.023,-0.062,103.0,101.0,100.0,13.4,1505.2,327.8,-0.7,1.8,2470.638,13.28,0.075,252.3
2021-09-18T08:49:03,42.805,6.029,-0.064,-0.003,-0.022,101.0,102.0,101.0,13.4,1505.2,329.0,-0.8,1.8,2470.627,13.28,0.064,267.3
2021-09-18T08:52:03,42.805,6.029,-0.063,-0.028,-0.047,101.0,103.0,100.0,13.3,1505.2,326.8,-0.7,1.8,2470.631,13.28,0.068,246.0
2021-09-18T08:55:03,42.805,6.029,-0.056,-0.025,-0.048,101.0,102.0,101.0,13.4,1505.2,330.7,-0.8,1.8,2470.598,13.28,0.061,245.9
2021-09-18T08:58:03,42.805,6.029,-0.06,-0.032,-0.002,101.0,102.0,101.0,13.3,1505.2,324.9,-0.8,1.9,2470.601,13.28,0.067,241.9
2021-09-18T09:04:03,42.805,6.029,-0.054,-0.018,-0.037,101.0,101.0,100.0,13.3,1505.2,327.3,-0.8,1.8,2470.648,13.28,0.056,251.6
2021-09-18T09:07:03,42.805,6.029,-0.053,-0.013,-0.029,102.0,102.0,101.0,13.4,1505.2,327.4,-0.7,1.8,2470.616,13.28,0.054,256.2
2021-09-18T09:10:03,42.805,6.029,-0.044,-0.019,-0.017,101.0,102.0,100.0,13.3,1505.2,329.2,-0.8,1.8,2470.626,13.28,0.047,246.6
2021-09-18T09:13:03,42.805,6.029,-0.054,-0.006,-0.051,101.0,102.0,100.0,13.4,1505.2,331.3,-0.8,1.9,2470.608,13.28,0.054,263.7
2021-09-18T09:16:03,42.805,6.029,-0.058,-0.009,-0.001,102.0,101.0,101.0,13.3,1505.2,330.1,-0.8,1.8,2470.636,13.28,0.058,261.2
2021-09-18T09:19:03,42.805,6.029,-0.052,-0.006,-0.022,103.0,101.0,101.0,13.4,1505.2,330.3,-0.8,1.8,2470.593,13.28,0.052,263.4
2021-09-18T09:22:03,42.805,6.029,-0.066,-0.002,-0.029,101.0,103.0,100.0,13.4,1505.2,331.6,-0.8,1.8,2470.594,13.28,0.066,268.3
2021-09-18T09:25:03,42.805,6.029,-0.058,0.009,0.021,103.0,102.0,99.0,13.4,1505.2,329.2,-0.7,1.8,2470.637,13.28,0.058,278.8
2021-09-18T09:28:03,42.805,6.029,-0.087,0.0,-0.041,102.0,101.0,101.0,13.4,1505.2,331.2,-0.8,1.8,2470.6,13.28,0.086,270.0
2021-09-18T09:31:03,42.805,6.029,-0.051,-0.011,-0.012,101.0,101.0,100.0,13.4,1505.2,330.3,-0.7,1.9,2470.616,13.28,0.052,257.8
2021-09-18T09:34:03,42.805,6.029,-0.055,-0.009,-0.024,100.0,101.0,102.0,13.3,1505.2,328.0,-0.7,1.8,2470.58,13.28,0.055,260.7
2021-09-18T09:37:03,42.805,6.029,-0.073,-0.017,-0.046,100.0,102.0,101.0,13.4,1505.2,329.3,-0.7,1.9,2470.619,13.28,0.074,256.9
2021-09-18T09:40:03,42.805,6.029,-0.074,-0.011,-0.036,101.0,101.0,101.0,13.4,1505.2,327.9,-0.7,1.8,2470.6,13.28,0.074,261.5
2021-09-18T09:43:03,42.805,6.029,-0.1,-0.018,-0.035,101.0,101.0,101.0,13.4,1505.2,326.7,-0.8,1.8,2470.58,13.28,0.101,259.8
2021-09-18T09:46:03,42.805,6.029,-0.078,-0.018,-0.035,102.0,101.0,101.0,13.3,1505.2,325.8,-0.7,1.8,2470.585,13.28,0.08,257.0
2021-09-18T09:49:03,42.805,6.029,-0.061,-0.041,-0.076,101.0,100.0,100.0,13.4,1505.2,329.4,-0.7,1.8,2470.576,13.28,0.073,236.1
2021-09-18T09:52:03,42.805,6.029,-0.059,-0.015,-0.049,103.0,99.0,101.0,13.4,1505.2,327.3,-0.7,1.8,2470.557,13.28,0.06,255.7